ECMWFNIL_925_temp_093.txt.gz
Temp
14 15 15 14 14 15 15 15 15 15 15 15 15 15 15 15 15 15 15 15 15 15 16 16 16 15 15 15 15 16 16 15 15 15 15 15 15 15 15 15 15 15
14 14 14 14 14 14 15 15 15 15 15 16 15 15 15 15 15 15 15 15 15 15 16 16 16 15 15 16 16 16 16 15 15 16 15 15 15 16 15 15 16 16
14 14 15 15 15 15 15 15 15 15 15 16 15 15 14 14 15 15 15 15 15 15 16 16 15 15 16 16 16 16 16 15 15 16 16 16 16 16 15 15 16 16
14 14 16 16 16 17 17 15 15 15 15 15 15 15 14 14 15 15 15 15 15 15 16 16 15 16 16 16 16 16 16 15 15 16 16 17 16 16 16 16 16 16
14 14 15 15 16 17 16 15 15 15 14 14 15 15 14 14 15 15 15 15 15 16 16 15 16 16 16 16 16 16 16 15 15 16 16 17 16 16 16 16 16 16
14 14 14 14 15 15 15 15 15 15 15 14 14 14 14 15 15 15 16 16 16 16 16 15 16 16 16 16 17 17 16 16 16 16 16 17 17 16 17 16 16 16
14 14 14 14 14 15 15 15 15 15 16 15 14 14 15 15 15 15 16 16 16 16 16 16 16 16 17 17 17 17 16 16 16 16 16 16 16 16 16 16 16 16
14 14 15 15 14 14 14 15 15 15 16 15 14 15 15 16 16 16 16 16 16 16 16 16 16 16 17 17 16 16 16 16 16 16 16 16 16 16 16 16 16 16
14 15 15 15 15 14 14 15 15 15 15 14 15 15 15 15 16 16 16 16 16 17 17 17 17 17 17 16 16 16 17 17 17 17 16 16 16 16 16 16 16 16
14 14 14 15 14 14 14 15 15 15 15 15 15 15 15 15 15 15 15 16 16 17 17 17 17 17 17 17 17 17 17 17 17 17 17 16 16 16 16 16 16 16
13 13 14 14 14 14 14 15 15 15 15 15 14 15 15 15 15 15 15 14 15 17 18 18 18 18 18 17 17 17 17 17 17 17 17 16 16 16 16 16 16 16
13 13 13 14 14 14 14 15 15 14 14 14 14 15 16 16 16 16 15 14 15 17 18 18 18 18 18 18 18 17 17 17 17 17 17 17 17 16 16 16 16 16
13 13 13 13 14 14 14 14 14 14 14 14 15 15 16 16 16 17 16 16 16 18 18 18 18 18 18 18 18 17 17 17 17 17 17 17 17 17 17 16 16 16
13 13 13 13 14 14 14 14 14 14 14 14 15 15 15 16 16 16 16 17 17 17 17 17 18 18 18 18 17 17 17 17 17 17 17 17 17 17 17 17 17 17
13 13 13 13 13 14 14 14 14 14 14 14 14 15 15 15 16 15 16 17 17 17 17 17 17 17 17 17 17 17 17 17 17 17 17 18 17 17 17 17 17 16
12 13 13 13 13 13 13 13 13 13 13 13 14 14 15 15 16 16 16 16 17 17 17 17 17 17 17 17 17 17 17 18 18 17 17 17 17 17 16 16 16 16
12 12 13 13 13 13 13 13 13 13 13 13 13 14 14 15 15 15 16 16 16 16 17 17 17 17 17 17 17 18 18 18 18 17 17 17 17 17 16 16 16 16
11 12 12 12 12 12 13 13 12 12 13 13 13 13 14 14 15 15 15 15 16 16 16 16 16 17 17 17 17 18 18 18 17 17 16 16 16 16 16 16 16 16
10 11 11 11 12 12 12 12 12 12 12 12 13 13 13 14 14 14 15 15 15 16 16 16 16 17 17 17 17 17 17 17 17 16 16 16 16 16 16 16 16 16
10 10 10 10 11 11 11 12 11 11 11 11 12 12 13 13 13 14 14 15 15 16 16 16 16 17 17 17 17 17 17 17 16 16 16 16 16 16 16 16 16 16
9 10 9 9 10 10 11 11 10 10 11 11 11 12 12 12 12 13 13 13 14 15 16 16 16 16 16 17 16 16 15 16 16 16 16 16 16 16 16 16 16 16
9 9 8 8 9 9 9 9 9 9 10 10 11 12 11 11 11 11 12 12 13 13 14 15 14 14 15 15 15 15 15 15 15 15 15 14 14 14 15 15 15 15
8 8 8 7 7 8 7 8 8 9 9 10 11 12 11 11 10 11 11 11 12 12 12 13 13 12 13 13 14 14 14 14 13 13 12 12 12 13 13 14 14 14
7 8 7 7 6 6 6 6 7 8 8 8 10 11 11 10 10 10 10 10 10 10 10 11 11 11 12 12 12 13 13 13 12 11 11 10 11 11 12 13 13 13
7 7 7 6 6 6 6 6 6 6 6 7 7 9 10 10 10 10 10 10 10 9 10 10 10 11 11 12 12 12 12 12 12 12 11 11 11 12 12 12 12 12
7 6 6 6 6 6 6 6 6 5 6 6 6 7 8 9 10 10 10 9 9 9 9 10 10 10 11 12 12 12 12 12 13 13 12 12 12 12 12 11 11 11

ECMWFNIL_925_temp_096.txt.gz
Temp
17 17 17 17 17 17 17 17 18 18 17 17 17 17 17 17 16 16 16 16 16 16 15 15 15 15 15 15 16 15 15 16 16 16 16 16 16 16 16 16 16 16
17 17 17 17 17 17 17 17 17 18 18 17 17 17 17 17 16 16 16 16 16 16 16 15 15 15 15 15 16 16 16 16 16 16 16 16 16 16 16 16 16 16
17 17 17 17 17 17 17 17 17 17 17 17 16 16 16 16 16 16 16 16 16 15 16 16 16 15 15 15 16 16 16 16 16 16 16 16 16 16 16 16 16 16
17 17 17 17 17 17 17 17 17 17 17 17 16 16 16 15 16 16 16 16 16 16 16 16 16 16 16 16 16 16 16 16 16 16 16 16 16 16 16 16 16 16
17 17 17 17 16 16 16 16 17 17 17 16 16 15 15 15 15 16 16 16 15 16 16 16 16 16 16 16 16 16 16 16 16 16 16 16 16 16 17 16 16 16
17 17 16 16 16 16 16 16 16 17 16 16 16 15 15 15 15 15 16 16 16 16 16 16 16 16 16 16 16 16 16 17 16 16 16 16 16 16 17 17 16 16
16 16 16 16 16 16 16 16 16 16 16 16 15 15 15 15 15 15 15 15 16 16 16 16 16 16 16 16 16 16 17 17 16 16 17 17 16 17 18 18 17 16
16 16 16 16 16 16 16 15 15 16 15 15 15 16 16 16 16 15 15 16 16 16 16 17 16 16 16 16 16 16 17 17 17 16 17 17 18 18 19 18 18 18
15 15 15 15 15 15 15 15 15 15 15 15 16 16 16 16 16 16 16 16 16 16 16 17 17 17 16 16 16 17 17 17 17 17 17 18 18 18 18 18 18 19
15 15 14 14 15 15 15 15 15 15 15 16 16 16 15 16 16 16 16 16 16 16 16 16 16 17 16 16 17 17 17 17 17 17 17 18 18 18 18 18 18 19
14 14 14 14 15 15 15 15 15 15 15 15 15 15 15 15 16 16 16 16 16 16 16 16 16 16 16 17 17 17 18 18 18 19 18 18 18 18 18 18 18 18
13 14 14 14 14 15 15 15 15 15 15 15 15 15 15 15 15 15 15 15 15 15 16 16 16 16 17 17 18 18 18 19 19 19 19 18 18 18 18 18 18 18
13 13 14 14 14 14 14 15 15 15 15 15 15 15 16 16 16 15 15 15 15 15 16 17 16 17 18 18 18 18 18 18 19 18 18 18 18 18 18 18 18 18
12 13 14 14 14 14 14 15 15 15 15 15 15 15 16 16 16 16 15 15 15 15 16 16 17 17 18 18 18 19 18 18 18 18 18 18 18 18 18 18 18 18
12 13 14 13 13 14 14 14 14 14 14 14 14 15 15 15 15 15 15 15 15 16 15 16 17 17 17 18 18 19 19 18 18 18 18 18 18 18 18 18 18 17
12 12 13 13 13 13 13 13 13 13 14 14 14 14 14 14 14 14 14 14 15 15 15 15 17 17 17 17 18 18 18 18 18 18 18 18 18 18 18 17 17 17
12 12 12 13 13 13 13 13 13 13 13 13 13 13 13 13 13 13 14 14 14 15 15 15 17 17 17 17 17 18 18 18 18 18 18 18 18 18 18 17 16 16
11 11 11 11 11 12 12 12 12 12 12 12 12 12 13 13 13 13 13 14 14 14 14 16 17 17 17 17 17 17 17 18 18 18 18 18 18 18 18 17 16 16
11 10 10 9 10 10 10 10 10 11 11 11 11 12 12 12 12 13 13 13 13 13 14 15 16 17 17 17 17 17 17 18 18 18 18 18 18 18 17 17 17 16
11 10 9 8 9 9 9 9 9 9 10 10 11 11 11 12 12 12 12 13 13 13 14 15 16 16 17 17 17 17 17 17 18 18 18 17 17 17 17 16 16 16
10 9 8 8 8 8 8 8 8 8 8 9 10 10 11 11 12 12 12 13 13 13 13 14 14 15 16 16 16 16 16 16 16 16 17 16 16 15 15 15 15 16
10 9 8 7 8 8 8 8 7 8 7 8 9 9 9 11 12 12 11 12 13 12 12 12 13 14 14 15 15 15 15 16 15 15 15 15 14 14 14 14 14 14
9 9 8 7 7 7 7 7 7 7 7 7 7 8 8 9 10 10 9 10 12 11 10 10 12 13 13 13 13 13 14 15 14 14 13 13 12 13 13 13 13 13
9 9 8 7 7 7 7 7 7 7 7 6 6 6 7 7 8 9 9 10 10 9 9 9 10 11 12 12 12 13 13 13 13 13 12 11 11 12 12 12 12 13
8 8 8 8 7 7 6 6 7 7 6 6 6 6 6 6 7 8 8 9 8 8 9 9 9 10 11 12 12 12 13 13 13 13 12 12 12 11 11 12 13 13
8 8 8 8 7 6 7 7 7 6 6 6 6 5 5 5 6 7 8 8 7 8 8 8 9 9 10 11 12 12 12 12 12 12 12 11 11 11 11 12 12 12

ECMWFNIL_925_temp_102.txt.gz
Temp
18 18 18 19 19 19 19 19 19 18 18 18 17 17 17 17 17 17 17 16 16 16 16 16 16 16 16 16 16 16 16 16 16 16 16 16 16 16 16 16 16 17
17 17 18 18 18 18 19 18 18 18 17 17 17 16 16 16 17 17 17 16 16 16 16 16 16 16 16 16 16 16 16 16 16 16 16 15 15 15 15 15 16 17
17 17 17 17 17 18 18 18 17 17 17 17 17 16 16 16 16 17 16 16 16 16 15 16 16 16 16 16 16 16 16 16 16 16 16 15 15 15 15 16 16 16
16 16 16 17 17 17 17 17 16 16 17 17 17 16 16 15 15 16 16 15 16 16 15 15 16 16 16 16 16 16 16 15 15 16 15 15 15 16 16 16 16 16
16 16 16 16 16 17 17 17 16 16 16 16 16 16 16 15 15 15 16 15 15 15 15 15 16 16 16 16 16 15 15 15 15 15 15 15 15 15 16 16 16 16
15 16 16 16 16 16 17 16 16 16 16 16 16 16 15 15 15 15 15 16 15 15 15 15 15 16 16 16 16 15 15 15 15 15 15 15 15 15 16 16 16 16
15 15 15 15 16 16 16 16 16 16 16 16 16 16 15 15 15 16 16 16 16 15 15 15 15 16 16 16 16 15 15 15 15 15 15 15 15 15 16 16 16 16
15 15 15 15 16 16 16 16 16 16 16 15 15 16 16 15 15 15 16 16 16 16 15 15 15 15 15 16 16 16 15 15 15 15 15 15 15 16 16 16 16 16
15 15 15 15 15 15 15 15 16 15 15 15 15 15 15 15 15 15 16 17 16 15 15 15 15 15 15 15 16 16 15 15 15 15 16 16 16 16 16 16 15 15
14 14 14 15 15 15 15 15 15 15 15 15 15 15 15 15 15 16 16 16 16 16 15 15 15 15 15 15 15 15 15 16 16 16 16 16 15 15 15 15 15 15
14 14 14 14 14 14 14 14 14 15 15 15 15 15 15 15 16 16 16 16 16 16 16 15 15 15 15 15 15 15 15 16 16 16 16 16 15 15 15 15 15 15
14 13 13 13 13 13 13 14 14 14 14 14 14 15 15 15 15 15 15 15 15 15 16 15 15 15 15 15 15 15 15 15 16 15 16 16 16 16 16 16 16 16
13 13 13 12 12 13 13 13 13 13 13 13 13 14 14 14 14 14 14 14 14 14 14 14 14 14 15 15 15 15 15 15 15 15 16 16 16 17 17 17 17 16
13 12 12 12 12 12 12 12 12 12 12 12 13 13 14 14 14 14 14 14 14 14 14 14 14 15 15 15 15 15 15 16 16 16 16 16 17 17 16 16 16 16
12 12 12 12 12 11 11 11 10 10 11 11 12 12 13 13 13 13 13 13 13 13 14 14 14 14 14 15 15 15 16 16 16 17 17 17 17 16 16 16 16 16
12 12 12 11 11 11 11 10 9 9 10 10 10 11 11 12 12 12 12 12 12 13 13 14 14 14 14 14 15 15 16 17 17 17 17 16 16 16 16 15 15 16
12 12 11 11 11 10 10 9 9 9 9 9 10 10 10 11 12 12 11 11 12 12 13 13 13 13 14 14 15 15 16 16 17 17 17 16 15 16 16 15 15 16
12 12 11 11 11 10 10 9 9 8 8 8 9 9 9 9 10 10 10 11 12 12 12 13 13 13 14 15 15 16 16 16 16 16 16 15 14 15 16 15 14 15
11 11 11 11 10 10 9 9 8 8 8 8 8 8 8 8 8 8 9 9 10 11 11 12 13 13 14 15 15 15 16 16 16 16 15 15 14 14 14 14 14 14
11 11 11 11 10 10 9 9 8 8 7 7 7 7 7 7 7 7 8 8 9 10 11 12 12 13 14 15 15 15 16 16 15 15 14 14 14 14 13 13 14 14
11 11 11 10 10 9 9 8 8 7 7 7 7 7 7 7 6 7 7 8 8 9 10 11 12 12 13 14 14 15 15 15 15 14 14 13 13 13 13 13 13 13
11 11 11 10 10 9 9 8 8 7 7 7 7 6 6 6 6 6 7 8 8 8 9 10 11 12 13 13 14 14 14 15 14 14 14 13 13 13 13 13 12 13
11 11 10 10 9 9 8 8 8 8 8 7 7 7 6 6 6 5 6 7 8 8 8 8 10 11 12 12 13 13 13 13 13 13 13 12 12 13 13 12 11 12
10 10 10 9 8 8 8 8 8 8 8 8 7 7 6 6 6 5 5 6 6 7 7 8 9 10 11 11 12 12 12 11 11 12 12 11 11 12 12 12 11 11
9 9 9 9 8 8 7 7 8 8 8 8 8 7 7 6 6 5 5 5 5 5 7 7 8 8 9 10 11 12 11 11 11 11 11 10 10 10 11 12 11 11
9 9 9 9 8 8 8 7 7 7 8 8 7 7 7 6 6 5 5 5 4 4 5 6 6 7 8 9 10 10 11 10 10 9 9 9 9 9 9 10 10 10

ECMWFNIL_925_temp_105.txt.gz
Temp
16 16 16 16 16 16 17 17 17 16 17 16 16 16 16 16 16 16 16 15 15 15 15 15 15 15 15 15 15 15 15 16 16 15 15 15 14 15 16 15 16 16
16 16 16 16 16 16 16 16 16 16 16 16 16 16 16 16 16 16 15 15 15 15 14 14 15 15 15 16 16 15 15 15 16 16 16 15 15 15 15 15 15 16
15 16 16 15 15 16 16 16 16 16 16 16 16 16 16 16 16 16 15 15 14 14 14 15 15 15 16 16 16 16 15 15 16 16 16 16 15 15 14 14 15 15
15 15 15 15 15 15 15 16 16 16 16 16 16 16 16 16 16 16 16 15 14 14 14 15 15 16 15 15 15 15 15 15 15 15 16 15 15 15 14 14 15 15
15 15 15 15 15 15 15 15 15 15 15 15 16 16 15 15 15 16 16 15 14 14 15 15 15 15 15 15 15 15 15 15 15 15 15 15 15 15 14 14 14 15
14 14 14 15 15 15 15 15 15 15 15 15 15 15 15 15 15 16 16 15 14 15 15 15 15 15 15 15 15 15 15 15 15 15 15 14 15 14 14 14 15 14
14 14 14 14 14 14 14 14 14 14 14 15 15 15 15 15 15 15 15 15 15 15 15 15 15 15 15 15 15 15 15 15 14 14 15 14 14 14 14 14 15 15
14 14 14 14 14 14 14 14 14 14 14 14 14 14 14 14 15 15 15 15 15 15 14 15 15 15 15 15 15 15 15 15 14 14 14 14 15 15 15 15 15 15
13 13 13 13 13 13 13 13 13 13 13 14 14 14 14 14 14 15 15 15 15 15 14 14 15 15 15 15 15 15 15 15 14 14 14 14 15 16 15 15 15 15
13 13 13 12 12 12 12 12 12 13 13 13 13 14 14 14 14 14 14 15 15 14 14 14 14 14 15 15 15 15 14 14 14 15 14 14 14 15 15 15 15 15
12 12 12 12 11 11 11 11 12 12 12 12 13 13 13 13 14 14 13 14 14 13 13 14 14 14 15 15 15 14 14 14 14 14 15 14 14 14 14 14 14 15
12 12 11 11 11 10 10 10 11 11 12 12 12 12 13 13 13 13 13 13 13 13 13 14 14 14 14 15 15 14 15 14 14 14 15 15 14 14 14 14 15 15
11 11 11 11 10 10 10 9 10 10 11 11 11 11 11 12 12 12 13 13 13 13 13 13 14 15 15 15 15 15 15 15 15 15 15 15 15 15 15 15 15 15
11 11 10 10 10 9 9 9 9 9 10 10 11 10 10 10 11 11 12 12 13 13 13 13 14 15 15 15 15 15 16 16 16 15 15 15 15 15 15 15 15 15
11 11 10 10 9 9 9 9 9 9 9 9 10 9 9 9 9 10 11 12 12 13 13 14 14 14 15 15 15 16 16 16 16 16 15 15 14 14 14 14 14 14
11 10 10 9 9 8 8 8 8 8 8 8 8 9 9 9 9 10 10 10 11 12 12 13 14 14 14 14 15 15 15 15 16 16 15 14 14 14 14 14 14 14
10 10 10 9 9 8 8 8 7 8 7 7 8 8 8 9 9 9 9 9 10 11 11 12 12 13 14 14 15 15 15 16 15 16 15 14 14 14 13 14 14 14
10 10 9 9 8 8 7 7 7 7 7 7 7 7 7 7 7 8 8 8 10 11 11 11 11 12 13 14 14 14 15 15 15 15 15 14 14 13 13 13 13 14
10 9 9 8 8 8 7 7 7 7 6 6 6 6 6 6 6 7 8 8 9 10 10 11 11 12 12 13 13 13 14 14 15 14 14 13 13 12 12 13 13 13
9 9 8 8 8 8 8 7 7 7 6 6 6 6 6 6 6 6 7 8 8 8 9 10 10 11 11 12 12 12 13 14 14 13 13 12 12 12 12 13 13 13
9 8 8 8 8 8 8 7 7 7 6 6 5 5 5 5 5 5 6 6 7 8 8 9 9 10 11 11 11 11 11 12 12 12 12 12 12 12 12 12 13 13
8 8 8 8 8 8 8 8 7 7 6 6 5 5 5 5 5 5 5 5 6 7 8 8 9 10 10 11 11 10 9 9 9 10 10 11 11 11 12 12 12 12
8 8 7 7 8 8 7 7 7 7 7 6 6 5 5 5 5 5 5 5 5 6 6 7 8 9 10 10 11 11 10 9 8 8 8 8 8 8 9 10 11 11
8 8 8 8 8 8 7 7 7 7 7 6 6 6 5 5 5 5 5 5 5 5 5 6 6 8 9 10 10 10 10 10 9 8 8 7 7 7 7 8 9 10
8 8 8 8 8 8 8 8 8 7 7 7 7 6 6 6 5 6 6 5 5 5 6 6 6 6 8 8 9 10 10 10 9 9 8 7 7 7 7 7 7 8
8 8 8 8 8 8 8 8 8 8 8 8 8 7 7 6 6 6 6 5 5 5 6 6 6 6 7 7 8 8 9 9 9 8 7 7 7 7 7 7 7 7